Regional Weather Roundup
Issued by NWS Newport/Morehead, NC

Current Version | Previous Version | Graphics & Text | Print | Product List | Glossary On
Versions: 1 2 3 4 5 6 7 8 9 10 11 12 13 14 15 16 17 18 19 20 21 22 23 24 25 26 27 28 29 30 31 32 33 34 35 36 37 38 39 40 41 42 43 44 45 46 47 48 49 50
000 ASUS42 KMHX 262113 RWRMHX WEATHER ROUNDUP FOR EASTERN NORTH CAROLINA NATIONAL WEATHER SERVICE NEWPORT/MOREHEAD CITY NC 500 PM EDT THU APR 26 2018 NOTE: "FAIR" INDICATES FEW OR NO CLOUDS BELOW 12,000 FEET WITH NO SIGNIFICANT WEATHER AND/OR OBSTRUCTIONS TO VISIBILITY NCZ015>017-031-032-045>047-102-103-262200- NORTH COAST CITY SKY/WX TMP DP RH WIND PRES REMARKS EDENTON PTSUNNY 69 56 64 E8 29.87F ELIZABETH CITY FAIR 66 52 60 SE12 29.88S KITTY HAWK CLOUDY 58 49 72 E5 29.89R MANTEO PTSUNNY 61 49 65 SE9 29.90R $$ NCZ045>047-081-094-103-104-262200- CENTRAL COAST CITY SKY/WX TMP DP RH WIND PRES REMARKS FRISCO FAIR 69 60 73 E8 29.89S $$ NCZ095-097-098-100-101-262200- SOUTHERN COAST CITY SKY/WX TMP DP RH WIND PRES REMARKS BEAUFORT FAIR 73 62 68 S12 29.86F CEDAR ISLAND NOT AVBL JACKSONVILLE FAIR 74 60 61 S12G22 29.84F PINEY ISLAND NOT AVBL WILMINGTON FAIR 76 56 49 S12G21 29.84F $$ NCZ011>013-027>030-043-044-078>080-089-090>093-098-262200- COASTAL PLAIN CITY SKY/WX TMP DP RH WIND PRES REMARKS AHOSKIE CLOUDY 73 57 57 CALM 29.84F CLINTON FAIR 75 59 57 CALM 29.82S ELIZABETHTOWN PTSUNNY 77 54 45 MISG 29.82S GOLDSBORO FAIR 77 55 47 CALM 29.81F GREENVILLE FAIR 77 55 47 SW6 29.85F HAVELOCK PTSUNNY 76 63 64 S12G23 29.86F KENANSVILLE CLOUDY 73 59 60 SE3 29.83S KINSTON PTSUNNY 77 55 47 S9 29.83F NEW BERN FAIR 75 58 55 S13G20 29.85F RICHLANDS FAIR 76 59 55 SE10G21 29.84S ROCKY MOUNT FAIR 74 56 53 SW5 29.83F WASHINGTON CLOUDY 71 59 66 CALM 29.84S WHITEVILLE FAIR 74 55 50 SE9 29.82S $$ AMZ130-135-150-152-154-156-158-170-250-252-270-ANZ085-086-088-633-658-670-262200- MARINE OBSERVATIONS STATION/POSITION TIME TEMP WIND PRES WAVE SWELL AIR SEA DIR/SP/G HT/PER HT/PER (UTC) (F) (DEG/KT/KT) (MB) (FT/S) (FT/S) CHESAPEAKE LIGHT NOT AVBL 64 E VA BEACH 2050 56 55 30/ 2/ 2 1013.2 7/10 7/10 DUCK 2048 59 53 100/ 7/ 7 1011.8 2 E DUCK 2100 56 N/A 4/10 2/11 OREGON INLET 2042 59 61 70/ 7/ 9 1012.0 13E OREGON INLT 2048 56 N/A 5/10 5/10 HATTERAS CG 2048 66 69 110/ 7/ 10 1011.8 DIAMOND BUOY 2100 72 71 190/ 10/ 12 1012.3 CAPE LOOKOUT 2100 160/ 7/ 8 1011.6 BEAUFORT LAB 2048 71 66 170/ 9/ 11 1011.2 30 SE NEW RVR IN 2008 71 69 230/ 6/ 8 1009.3 30 SE NEW RVR IN 2100 69 N/A 4/10 2/11 27 SE WRIGHTSVLE 2008 70 67 210/ 6/ 8 1011.3 5 SE WRIGHTSVLE 2008 68 66 170/ 6/ 10 1010.6 225 S CAPE HAT 2100 73 74 220/ 12/ 14 1013.2 41 SE CHARLESTON 2050 70 220/ 8/ 12 1010.8 3/ 9 3/ 9 $$

USA.gov is the U.S. government's official web portal to all federal, state and local government web resources and services.